Location: Waco, TX
(31.5480°N, 97.1670°W)
Time: 15:07:46
(UTC-05:00)

ISS - Pass Details

Date: 19 September 2019
Orbit: 411 x 421 km, 51.6° (Epoch: 17 September)

Event Time Altitude Azimuth Distance (km) Brightness Sun altitude
Rises 21:17:59 0° 261° (W) 2,334 1.1 -23.6°
Maximum altitude 21:22:48 16° 325° (NW) 1,157 -0.9 -24.6°
Enters shadow 21:24:03 14° 352° (N) 1,274 -1.0 -24.8°
Drops below altitude 10° 21:24:58 10° 6° (N) 1,477 - -25.0°
Sets 21:27:38 0° 29° (NNE) 2,341 - -25.6°
